Wind_Speed
36 35 34 34 33 34 34 33 32 30 28 25 24 23 21 21 20 18 18 17 16 16 16 16 16 16 16 16 16 17 16 15 15 15 14 15 14 14 14 14 14 15 15 15
38 37 36 36 35 34 34 34 33 31 30 27 26 26 24 23 21 20 19 19 19 19 19 19 19 18 18 18 18 18 17 17 17 16 16 16 16 16 16 17 17 17 16 16
39 38 37 38 36 35 35 35 34 33 31 30 29 28 27 26 25 23 23 22 21 22 22 22 21 20 19 19 19 19 19 19 19 18 18 17 17 17 18 18 18 18 17 17
39 39 40 39 37 36 36 36 35 34 33 31 30 29 29 28 28 27 25 24 23 23 24 24 23 23 22 21 21 22 22 21 21 20 19 19 19 19 20 20 20 20 20 19
40 41 41 41 39 38 37 36 35 35 33 32 32 31 30 29 29 29 28 26 25 25 25 25 25 25 24 23 24 24 24 24 23 22 22 22 21 21 21 22 22 22 22 22
41 42 41 40 39 39 39 39 37 36 35 33 32 32 31 31 31 30 29 29 28 27 27 27 27 27 26 26 26 26 25 26 25 25 24 24 24 24 23 24 24 23 24 23
40 41 41 40 40 40 41 39 37 37 35 34 33 33 33 33 32 32 31 30 29 29 29 28 28 28 28 28 29 28 27 27 27 27 27 27 26 26 26 26 25 25 25 24
40 41 41 39 38 39 39 39 38 38 36 35 34 34 34 34 33 33 32 32 31 31 31 31 30 30 30 29 30 30 29 28 29 29 29 29 29 29 28 28 27 26 25 25
42 41 39 39 38 38 38 38 38 38 37 38 37 36 35 35 34 34 34 34 33 33 33 33 33 32 32 31 31 31 31 31 30 30 30 30 30 30 30 29 28 27 27 27
41 41 40 39 39 39 38 37 37 37 38 38 38 38 37 37 36 36 35 35 35 35 35 35 35 34 34 34 33 33 33 33 32 32 33 33 32 32 31 30 30 29 29 29
40 39 39 38 38 38 38 38 38 37 37 38 38 38 37 36 37 37 37 36 36 36 36 36 36 36 35 35 34 34 34 33 33 33 34 33 32 32 32 31 31 31 30 30
40 39 38 37 37 37 38 39 38 37 37 38 38 38 37 38 38 37 37 36 36 36 37 37 37 36 36 36 36 35 34 35 35 35 34 33 33 33 33 33 32 31 31 30
39 39 39 37 37 38 38 38 38 37 38 39 39 39 39 38 38 38 38 38 38 37 37 37 37 37 37 37 37 36 35 35 35 35 35 34 34 33 33 33 32 32 31 31
38 39 38 37 36 37 38 39 38 38 38 39 40 40 40 39 39 38 39 39 38 38 37 37 37 38 37 38 38 37 36 36 36 35 35 34 34 34 33 33 33 33 32 32
36 37 36 35 35 35 35 36 36 36 37 37 38 39 39 38 37 37 38 39 39 38 38 37 37 36 36 37 37 36 36 36 36 36 35 34 34 35 35 35 35 34 33 33
34 34 34 34 33 33 34 34 35 35 34 35 36 37 37 36 36 36 37 38 38 38 37 37 37 37 36 36 35 35 35 35 35 34 33 34 35 36 36 35 35 35 34 34
31 31 31 32 32 32 32 32 33 33 33 33 34 35 35 35 35 35 36 37 38 38 38 38 37 37 36 35 35 35 35 35 34 34 34 34 34 34 35 35 35 36 35 35
29 29 29 31 31 31 32 32 32 32 33 33 34 34 34 34 34 35 35 35 35 35 36 36 36 37 35 34 34 33 34 33 33 34 34 34 34 34 34 35 35 35 35 36
28 29 29 30 30 30 30 31 32 32 32 32 33 33 34 34 34 34 34 33 33 33 34 34 34 34 34 34 34 33 33 34 34 34 34 34 34 34 34 34 35 35 35 36
25 26 27 27 28 29 30 31 32 32 32 32 32 32 32 32 32 32 33 33 32 32 32 32 33 33 32 32 31 32 32 33 33 33 33 33 32 33 34 34 34 34 34 35
23 24 25 25 25 26 27 27 29 29 30 30 30 30 30 30 30 30 30 30 31 31 31 31 31 30 30 30 30 30 31 31 31 32 32 32 32 32 32 32 33 33 34 34
20 21 21 22 22 23 24 25 26 27 28 27 28 29 29 29 29 29 30 29 29 29 30 30 30 29 29 29 29 29 30 30 31 31 31 30 30 31 30 30 31 32 33 34
19 20 20 19 19 20 21 23 24 25 25 25 25 27 28 27 27 27 27 28 28 28 28 28 28 28 28 28 28 28 28 28 28 29 29 29 29 29 30 30 30 32 32 32
17 18 19 19 19 19 20 22 22 22 23 23 23 24 25 25 24 25 25 26 26 26 26 26 26 26 26 27 27 26 26 26 26 27 27 28 29 29 29 29 30 31 31 32
16 17 18 18 18 18 19 20 21 21 21 21 21 22 22 22 22 23 23 23 23 24 24 24 24 24 25 26 26 26 26 26 26 26 26 27 27 28 29 29 30 30 30 31
15 15 15 16 17 17 17 18 18 18 19 19 20 21 21 20 20 20 20 21 22 23 23 23 23 24 24 25 25 25 26 26 26 26 26 26 27 27 28 28 29 30 30 31
13 13 14 15 15 15 15 14 15 16 17 18 18 18 18 18 19 19 20 20 21 22 22 23 23 24 24 25 25 26 26 26 26 26 26 26 26 26 26 26 26 26 27 28
Wind_Direction
234 235 237 239 240 242 245 249 253 255 256 256 257 257 259 260 262 265 268 270 273 274 276 278 280 284 288 290 290 294 297 300 300 298 299 299 298 300 304 305 305 304 305 304
235 236 237 238 240 242 244 247 251 253 254 255 256 257 257 259 261 264 267 271 272 273 276 279 280 282 284 286 290 293 294 297 297 296 294 294 293 295 299 301 303 304 302 303
238 238 238 238 239 241 243 246 250 252 254 255 256 257 258 260 261 265 268 270 271 272 274 278 279 279 283 284 287 291 293 295 294 297 295 291 291 292 296 298 299 301 299 299
240 239 240 240 240 241 244 246 249 252 253 254 256 256 257 259 260 264 266 266 267 270 273 276 276 277 281 283 286 288 290 292 291 293 293 293 291 290 293 294 295 295 294 295
243 243 243 241 240 241 244 246 249 252 253 253 254 255 256 257 259 262 264 265 267 270 272 272 273 276 279 282 284 286 287 289 289 289 289 290 290 290 290 291 291 291 291 291
243 244 244 242 241 241 243 245 247 251 253 253 253 254 254 256 258 259 261 263 265 268 270 270 273 276 278 280 282 284 286 287 286 285 285 287 288 287 288 289 290 290 290 290
244 245 245 244 242 242 243 245 247 250 251 253 252 254 255 257 258 259 260 261 262 265 267 268 271 274 277 280 281 281 283 285 285 285 283 283 284 285 286 287 287 288 288 290
242 243 244 243 243 243 245 246 248 249 250 251 252 254 256 257 258 259 260 261 261 263 264 265 268 272 275 278 280 282 284 284 284 285 284 281 281 283 284 285 286 286 287 288
243 244 243 242 244 245 244 246 248 249 250 251 253 255 255 256 258 259 260 260 261 263 264 267 269 271 274 275 277 280 282 282 282 282 281 280 280 279 279 281 283 284 285 285
241 242 243 243 244 245 245 247 249 250 252 253 254 255 256 255 256 258 260 261 262 263 265 268 271 271 273 274 276 278 278 278 279 280 279 279 279 279 279 280 279 281 282 283
240 241 241 242 244 245 247 247 248 250 252 254 256 257 256 257 257 258 260 261 263 265 266 267 268 270 273 276 277 277 277 277 279 280 281 280 279 278 279 280 279 280 280 281
240 240 242 244 245 247 248 249 249 250 252 253 255 257 257 257 258 260 261 261 263 264 264 266 269 271 274 276 275 276 277 277 277 278 278 279 280 281 280 280 279 279 278 279
239 239 241 243 245 247 248 249 251 251 251 252 254 256 257 258 258 260 261 261 262 263 265 267 269 272 274 275 275 276 276 277 276 276 276 277 278 279 280 280 279 279 280 280
239 240 241 242 245 247 249 251 252 253 253 253 255 256 257 258 258 259 260 261 262 262 264 265 268 270 272 274 274 273 273 273 275 274 274 274 275 276 277 279 279 279 280 281
239 240 241 242 245 247 249 251 252 252 253 254 255 256 257 258 258 259 260 261 262 263 264 266 268 269 271 273 273 273 272 272 273 273 273 272 273 275 275 277 278 279 279 280
239 241 241 243 245 246 248 251 252 251 253 254 255 256 257 258 258 259 261 262 264 264 264 266 269 270 271 273 272 272 272 272 273 272 271 272 273 274 274 275 276 277 278 279
238 240 241 242 245 246 249 250 250 252 254 254 255 256 256 257 259 260 262 263 264 265 264 267 268 268 270 273 273 273 272 271 272 273 272 273 274 274 275 275 275 275 276 278
239 241 242 245 248 249 251 252 251 252 254 256 256 255 255 257 259 261 263 264 266 267 266 267 268 267 269 273 273 275 275 273 273 273 271 271 273 274 275 276 275 275 275 277
242 243 244 246 247 250 253 255 255 253 253 253 255 256 257 259 261 262 262 264 266 266 266 267 268 268 270 272 273 275 275 275 276 276 274 273 272 273 274 275 275 275 275 275
245 246 247 248 249 252 254 254 254 253 253 253 254 256 258 258 259 261 261 262 264 265 266 267 269 271 272 273 274 275 276 276 277 277 277 276 275 276 276 275 276 275 275 275
248 248 248 250 251 254 256 256 256 255 254 254 255 256 257 258 259 260 262 263 264 265 266 267 269 270 271 274 277 277 277 277 276 277 276 275 275 276 276 276 275 275 275 275
252 251 249 249 250 254 256 256 255 254 254 255 255 255 257 258 259 261 262 263 263 264 264 266 268 269 271 274 275 277 277 276 275 276 275 275 276 277 277 277 276 276 276 275
253 251 251 251 253 253 253 254 254 253 252 253 255 256 257 258 259 260 261 262 262 262 263 265 266 268 270 273 275 277 277 275 275 275 275 276 278 278 278 278 278 278 279 279
253 253 253 253 252 250 249 251 253 254 253 254 255 256 255 256 258 258 260 263 261 261 262 263 263 264 266 270 273 276 278 278 278 279 279 279 280 280 280 280 280 281 280 281
254 254 253 255 254 251 251 251 254 255 255 255 256 257 257 257 259 259 262 263 263 262 262 262 263 265 268 271 274 277 278 279 281 282 282 282 282 282 282 283 284 283 282 282
255 257 257 256 256 256 253 252 254 255 256 258 260 260 259 260 263 263 263 265 265 266 266 267 268 270 272 273 276 278 278 279 281 282 283 285 286 287 287 286 286 285 283 282
259 262 261 263 264 259 256 253 253 255 258 262 262 262 264 265 267 269 268 269 270 270 270 270 270 271 273 275 278 278 277 278 279 281 283 285 287 288 289 288 287 286 284 283
Height
5852 5856 5860 5863 5866 5869 5872 5874 5876 5879 5881 5884 5886 5888 5889 5890 5890 5891 5891 5892 5892 5891 5891 5891 5891 5890 5889 5888 5887 5886 5885 5884 5883 5882 5881 5880 5879 5878 5877 5875 5874 5873 5871 5870
5844 5848 5852 5855 5859 5862 5864 5867 5869 5872 5875 5877 5879 5881 5882 5884 5885 5885 5886 5887 5887 5886 5886 5886 5886 5885 5885 5884 5883 5881 5880 5879 5879 5878 5877 5876 5875 5874 5873 5872 5871 5869 5867 5866
5836 5840 5843 5846 5851 5854 5857 5859 5862 5864 5868 5870 5872 5874 5875 5877 5878 5879 5880 5880 5881 5881 5881 5881 5881 5880 5880 5879 5878 5877 5876 5875 5874 5874 5873 5872 5871 5870 5869 5868 5866 5865 5863 5862
5827 5832 5834 5841 5844 5846 5849 5851 5854 5857 5860 5862 5865 5867 5868 5870 5871 5872 5873 5874 5874 5874 5875 5874 5874 5874 5874 5874 5873 5872 5871 5870 5869 5869 5868 5867 5866 5865 5865 5863 5862 5860 5859 5857
5818 5821 5826 5831 5835 5837 5840 5843 5846 5848 5851 5854 5856 5858 5860 5862 5863 5864 5865 5866 5867 5867 5867 5867 5867 5868 5868 5868 5867 5866 5865 5865 5864 5863 5862 5861 5861 5860 5859 5858 5856 5855 5854 5852
5809 5812 5816 5823 5826 5828 5832 5834 5838 5840 5842 5845 5847 5850 5853 5853 5855 5856 5857 5858 5859 5860 5860 5860 5860 5860 5860 5860 5860 5859 5858 5858 5857 5856 5856 5855 5854 5853 5852 5851 5850 5849 5847 5846
5799 5802 5807 5812 5816 5819 5823 5826 5829 5831 5833 5836 5838 5841 5843 5844 5846 5847 5849 5850 5851 5852 5852 5852 5853 5853 5853 5852 5851 5851 5850 5850 5849 5849 5848 5848 5847 5846 5845 5844 5843 5842 5841 5840
5790 5793 5800 5803 5806 5810 5813 5816 5819 5821 5824 5826 5829 5831 5833 5835 5837 5839 5840 5842 5843 5843 5844 5844 5844 5844 5845 5844 5843 5843 5842 5842 5841 5840 5840 5839 5839 5838 5838 5836 5835 5834 5833 5833
5782 5787 5790 5793 5797 5800 5803 5806 5809 5812 5814 5817 5820 5822 5824 5826 5828 5830 5831 5832 5833 5834 5835 5836 5836 5836 5836 5836 5835 5834 5834 5834 5833 5832 5831 5831 5830 5830 5829 5828 5827 5827 5826 5825
5772 5777 5780 5784 5787 5790 5793 5796 5799 5802 5805 5807 5809 5812 5814 5816 5818 5820 5821 5822 5823 5824 5825 5826 5827 5827 5827 5826 5826 5825 5825 5825 5824 5823 5823 5822 5821 5821 5820 5819 5818 5818 5818 5817
5762 5767 5770 5773 5777 5780 5783 5786 5789 5792 5795 5797 5799 5802 5804 5806 5808 5809 5811 5812 5813 5814 5815 5816 5817 5817 5817 5816 5816 5816 5815 5815 5814 5814 5813 5812 5812 5812 5810 5810 5809 5809 5809 5808
5753 5757 5760 5764 5767 5770 5773 5776 5779 5782 5785 5787 5789 5791 5793 5795 5797 5798 5800 5801 5803 5804 5804 5805 5806 5806 5807 5806 5806 5805 5805 5805 5804 5804 5804 5803 5803 5802 5801 5801 5800 5799 5799 5799
5743 5747 5751 5754 5757 5760 5763 5766 5769 5771 5774 5777 5779 5780 5782 5784 5786 5788 5789 5790 5791 5793 5793 5794 5795 5795 5795 5795 5795 5795 5794 5794 5794 5794 5794 5794 5793 5792 5792 5792 5791 5791 5790 5789
5733 5737 5741 5745 5748 5751 5753 5756 5759 5761 5764 5766 5768 5770 5771 5773 5775 5776 5778 5779 5780 5781 5783 5783 5784 5784 5784 5784 5784 5783 5783 5783 5784 5784 5784 5783 5783 5783 5783 5783 5783 5782 5781 5781
5724 5728 5732 5735 5738 5741 5743 5746 5748 5751 5753 5755 5757 5759 5760 5762 5764 5765 5767 5768 5769 5770 5772 5772 5773 5773 5773 5773 5773 5772 5772 5773 5773 5773 5773 5773 5773 5773 5773 5773 5773 5772 5772 5771
5716 5719 5723 5726 5729 5732 5734 5736 5738 5741 5743 5745 5746 5748 5750 5751 5753 5755 5756 5757 5758 5759 5761 5761 5762 5762 5763 5762 5762 5762 5762 5762 5762 5761 5762 5762 5762 5762 5762 5762 5762 5762 5762 5761
5708 5711 5714 5717 5720 5723 5725 5727 5729 5731 5733 5735 5736 5738 5739 5741 5743 5744 5745 5746 5747 5749 5750 5751 5751 5752 5752 5752 5752 5751 5751 5751 5751 5751 5751 5751 5751 5751 5751 5751 5751 5751 5751 5750
5700 5704 5707 5709 5712 5714 5716 5718 5720 5721 5723 5725 5726 5728 5730 5731 5733 5734 5735 5736 5737 5738 5739 5740 5741 5742 5742 5742 5741 5741 5741 5740 5740 5741 5741 5741 5740 5741 5740 5740 5740 5740 5739 5739
5693 5696 5699 5701 5703 5705 5707 5709 5711 5712 5714 5715 5717 5718 5720 5722 5723 5724 5726 5727 5728 5729 5730 5730 5731 5731 5732 5732 5732 5731 5731 5731 5731 5730 5730 5730 5730 5730 5730 5729 5729 5728 5728 5728
5687 5689 5691 5693 5695 5697 5699 5700 5701 5703 5704 5705 5707 5709 5711 5712 5714 5715 5716 5718 5719 5720 5721 5721 5721 5721 5722 5722 5721 5721 5721 5721 5721 5720 5719 5719 5719 5719 5719 5718 5718 5717 5717 5717
5680 5682 5684 5686 5687 5689 5690 5691 5692 5693 5695 5696 5698 5700 5702 5704 5705 5706 5707 5708 5710 5711 5711 5712 5712 5712 5712 5713 5712 5712 5711 5711 5710 5710 5709 5709 5709 5709 5708 5708 5707 5707 5706 5706
5674 5676 5677 5679 5680 5681 5682 5683 5684 5685 5687 5689 5690 5692 5694 5695 5696 5697 5698 5700 5701 5702 5702 5703 5703 5704 5704 5704 5704 5703 5702 5701 5701 5700 5700 5699 5699 5699 5698 5698 5697 5696 5696 5695
5669 5670 5672 5673 5674 5674 5675 5676 5677 5678 5680 5681 5683 5684 5686 5687 5688 5689 5690 5691 5692 5693 5694 5695 5695 5696 5696 5696 5695 5694 5693 5693 5692 5691 5691 5690 5689 5689 5688 5688 5687 5686 5686 5685
5664 5665 5666 5667 5667 5668 5669 5670 5671 5672 5673 5675 5676 5677 5678 5679 5680 5681 5682 5683 5684 5685 5687 5687 5687 5688 5688 5688 5687 5687 5686 5685 5684 5683 5682 5682 5681 5680 5679 5678 5677 5677 5676 5675
5660 5661 5661 5662 5662 5663 5664 5665 5666 5667 5668 5669 5670 5671 5672 5673 5674 5675 5675 5676 5677 5678 5679 5679 5679 5680 5680 5680 5679 5679 5678 5677 5677 5676 5675 5674 5672 5671 5670 5669 5668 5667 5666 5665
5656 5657 5657 5657 5657 5658 5659 5660 5661 5662 5663 5664 5665 5666 5666 5667 5668 5668 5669 5670 5670 5671 5671 5671 5672 5672 5672 5672 5671 5671 5670 5670 5669 5668 5667 5666 5665 5663 5661 5660 5658 5658 5657 5656
5652 5653 5653 5654 5654 5654 5654 5655 5657 5658 5658 5659 5660 5660 5661 5661 5662 5662 5662 5663 5663 5663 5663 5663 5664 5664 5664 5663 5663 5662 5662 5661 5661 5660 5659 5658 5657 5655 5653 5651 5650 5649 5648 5647